GFSNE_sfc_thetae_000.txt.gz
Theta_e
325 324 324 322 322 315 312 311 308 304 303 308 309 312 314 318 318 320 316 319 318 315 314 314 314 313 314 315 317 313 309 308 307 306 305 305 305 306
323 321 321 320 318 315 311 311 311 306 302 305 307 310 315 318 321 319 317 319 317 314 313 312 311 311 313 313 313 311 307 305 304 303 303 303 303 303
320 320 318 317 313 309 312 310 309 309 308 311 314 314 316 318 316 317 317 317 314 313 312 310 308 309 311 311 307 308 307 303 302 301 301 301 301 300
316 316 313 312 312 312 314 313 312 312 312 312 310 306 308 307 310 312 310 308 309 312 310 308 307 307 308 309 306 305 304 302 301 300 299 299 299 299
315 315 313 314 312 313 314 314 313 314 315 311 305 302 304 304 306 307 307 309 308 310 308 307 306 306 305 306 305 302 301 299 299 300 300 299 298 298
311 312 312 314 314 313 313 314 314 314 311 306 303 301 303 302 304 305 304 303 303 305 303 303 303 304 304 304 304 302 300 299 298 299 300 299 299 298
307 308 309 311 310 311 311 313 314 310 307 305 302 301 301 302 304 302 302 300 302 302 300 298 297 298 300 302 304 304 300 300 300 300 299 298 297 297
306 304 306 307 306 304 305 305 307 310 307 304 301 303 302 301 300 301 299 299 298 301 300 298 296 296 298 300 301 301 302 299 299 299 298 298 297 295
302 301 302 302 304 305 303 302 301 301 304 308 306 305 303 303 302 298 298 298 300 299 299 297 296 295 297 298 299 300 299 298 298 297 297 297 295 294
298 298 301 301 301 303 303 302 301 301 303 303 308 309 307 304 304 302 300 299 298 297 298 297 296 295 296 298 297 298 297 296 296 296 296 296 294 293
297 297 297 298 295 294 301 300 299 297 295 295 295 294 293 294 298 298 297 297 297 297 296 297 295 295 295 297 299 296 296 295 295 295 295 294 293 293
301 301 297 295 293 292 299 299 299 299 295 294 296 296 296 296 296 302 299 297 296 295 298 296 293 294 293 296 298 298 297 294 293 293 293 293 293 293
303 303 302 295 292 292 293 298 298 295 294 294 294 294 295 297 299 299 299 299 296 296 297 297 293 293 294 295 295 295 295 295 294 293 292 291 292 291
305 304 303 295 294 292 294 292 289 291 293 293 292 292 293 294 295 297 299 298 299 300 299 298 296 295 294 292 292 294 295 294 293 292 292 292 292 291
305 300 296 294 293 294 292 292 290 293 292 291 291 293 293 295 296 295 297 299 299 299 298 299 298 296 296 294 292 292 292 292 292 292 292 292 291 292
299 300 298 296 294 296 296 295 297 295 294 293 293 294 294 294 294 296 296 297 296 298 299 299 299 298 295 294 292 292 291 289 291 292 292 291 291 292
298 297 297 300 302 302 297 296 295 295 295 296 295 295 295 295 295 297 297 298 296 297 296 296 298 298 297 295 290 291 290 289 290 291 291 290 290 291
298 299 299 299 301 301 299 298 295 293 294 295 296 297 296 297 296 298 297 297 297 297 295 297 293 291 291 292 294 291 289 289 291 291 291 289 288 291
303 301 302 302 303 302 300 300 298 298 297 296 296 294 295 296 295 296 296 295 294 294 295 296 292 292 289 287 291 293 291 290 290 289 289 289 288 289
304 306 307 307 305 302 300 299 298 297 294 294 293 294 294 294 294 293 293 293 294 295 293 292 291 291 291 290 290 292 289 292 290 289 289 289 289 289
304 305 303 305 305 303 301 299 295 292 291 291 291 291 291 292 292 292 293 289 291 293 292 292 292 288 292 290 287 288 290 289 291 290 290 287 286 286
307 306 305 303 299 297 295 293 293 292 292 292 292 292 292 292 292 293 293 294 294 295 294 294 291 291 289 287 287 288 288 289 290 291 291 291 288 284
298 296 295 295 294 294 294 293 293 294 294 294 294 294 294 294 296 295 296 296 295 295 294 293 292 289 289 288 287 287 286 287 288 288 289 290 290 290

GFSNE_sfc_thetae_003.txt.gz
Theta_e
326 326 325 324 323 317 316 318 317 312 310 316 319 321 323 323 324 325 325 319 319 316 315 315 316 315 316 318 315 312 310 308 306 306 305 305 305 304
329 329 327 326 322 322 316 316 321 315 310 316 315 320 323 323 324 324 323 320 317 315 314 313 313 314 314 315 311 311 307 305 304 304 303 302 301 301
332 330 329 330 328 324 321 318 317 316 311 315 317 324 326 326 326 327 325 326 318 314 313 311 310 312 312 310 310 309 306 304 302 301 300 299 299 299
328 329 328 327 328 326 322 321 318 320 314 315 319 319 321 322 324 323 319 318 316 310 310 309 309 310 308 305 305 307 304 304 302 300 298 298 298 299
329 329 327 328 325 323 323 319 320 319 321 317 315 316 316 317 318 316 315 315 311 308 308 308 308 308 309 306 304 303 302 301 300 300 298 298 298 299
326 326 326 327 326 325 323 323 322 321 321 317 315 314 315 314 318 313 310 312 310 307 305 306 305 305 305 306 303 302 300 299 298 299 300 300 299 298
321 319 320 317 314 317 323 324 324 320 318 317 316 315 313 312 314 315 313 310 310 310 306 304 303 304 305 304 304 303 300 299 299 300 300 299 298 298
320 319 318 314 309 306 309 311 321 324 322 318 317 316 318 316 315 313 313 308 307 311 307 304 303 302 304 305 304 302 301 301 300 300 299 298 297 296
321 319 314 312 315 316 304 303 303 303 309 324 322 320 320 318 317 314 313 312 312 311 308 305 303 301 303 302 301 301 301 300 299 299 298 297 296 295
317 317 318 316 313 315 317 317 316 316 317 316 322 324 322 322 318 318 316 314 312 309 309 304 307 301 303 303 299 300 299 298 298 298 297 296 295 294
309 309 311 310 297 296 314 314 313 312 297 296 296 294 295 297 307 311 309 307 306 306 307 305 306 304 303 302 303 298 298 297 296 296 296 296 294 293
307 307 296 304 294 294 311 311 309 311 308 305 307 303 298 303 297 312 311 305 304 303 308 302 303 303 300 303 303 303 301 296 296 295 294 294 293 297
306 307 307 293 293 292 296 309 308 308 303 306 305 305 305 307 306 307 310 307 303 303 307 305 303 303 301 300 302 303 303 301 300 297 293 293 293 292
314 313 312 294 292 292 294 297 293 294 307 305 304 304 303 303 305 307 309 309 308 307 309 306 302 301 300 298 297 300 300 302 301 298 298 296 293 293
317 309 300 294 293 294 292 294 290 303 308 307 306 306 306 305 306 305 307 308 309 308 305 307 304 304 301 299 298 300 297 299 299 297 297 296 296 297
300 309 304 302 299 301 303 302 307 310 308 308 307 307 305 304 303 304 302 302 301 301 306 307 306 305 300 300 300 299 301 296 299 297 296 297 296 296
309 312 311 310 310 311 312 311 309 308 306 306 304 305 304 305 305 305 302 300 300 301 302 304 304 302 303 304 300 300 300 298 296 296 295 295 296 296
307 312 313 311 309 314 315 316 315 307 308 306 305 305 303 301 300 303 302 301 300 302 303 303 301 298 299 302 302 299 299 297 297 295 295 294 295 296
312 308 307 309 311 313 313 314 312 310 307 302 302 299 299 301 299 300 299 300 299 300 300 299 299 298 295 294 300 296 295 296 295 294 295 294 293 294
313 313 314 316 315 313 311 308 306 303 300 299 300 301 301 300 299 299 299 299 298 299 298 299 299 297 294 296 296 301 290 295 294 293 294 294 294 291
315 312 310 311 309 304 303 303 299 298 299 299 300 301 301 301 300 300 300 291 292 297 297 298 300 289 300 301 296 294 293 291 295 294 294 293 292 293
310 304 303 302 299 299 296 298 300 299 300 301 302 301 302 302 301 301 300 298 298 299 300 301 300 299 296 292 290 292 291 292 292 292 292 292 293 290
299 299 300 298 296 296 298 298 298 298 300 300 299 299 300 300 301 299 299 301 300 299 297 295 296 296 294 292 289 289 289 290 291 293 295 294 292 292

GFSNE_sfc_thetae_006.txt.gz
Theta_e
329 329 328 325 327 322 322 322 318 314 318 324 324 330 333 332 329 328 326 319 320 317 317 317 318 318 319 319 316 314 313 310 308 307 306 305 304 303
331 331 326 326 322 321 318 319 322 324 316 323 323 328 330 325 325 327 325 319 318 316 316 315 315 315 316 315 313 312 310 307 306 305 304 303 302 301
330 328 325 326 323 323 321 322 326 324 320 320 323 327 326 324 322 327 325 322 320 315 315 314 312 313 314 311 311 310 308 306 305 303 302 301 300 300
331 330 326 330 330 331 328 330 328 327 323 318 323 324 326 330 328 330 326 326 325 314 313 311 311 311 311 309 308 308 307 306 305 303 301 301 300 299
333 333 331 334 332 332 331 326 324 322 323 319 319 322 325 327 327 327 326 326 323 311 310 309 310 311 308 306 306 306 304 302 302 303 302 300 299 298
334 334 334 334 333 334 331 327 323 322 323 320 320 321 321 324 325 321 319 320 318 313 310 307 308 309 309 306 305 305 302 301 300 300 300 300 299 298
331 331 332 323 316 321 323 326 328 323 322 320 319 319 319 319 321 322 320 321 321 319 314 312 309 308 307 307 308 305 302 301 300 300 299 299 299 298
326 324 321 317 312 308 310 310 323 328 326 321 320 320 323 322 323 322 321 319 315 321 318 316 313 310 310 309 305 303 301 300 300 299 299 299 297 297
329 328 323 319 321 322 306 306 307 307 311 329 327 325 326 328 327 324 324 321 319 322 317 314 317 311 311 309 304 302 301 299 299 299 299 298 297 296
329 329 327 326 322 323 323 323 323 323 323 323 330 331 331 331 330 327 326 326 324 323 321 312 317 313 313 310 302 301 300 299 299 298 298 297 296 295
321 321 322 320 300 300 318 320 321 321 297 298 299 296 295 296 306 323 318 317 315 316 321 313 312 310 311 311 309 300 298 298 297 298 298 297 296 295
316 315 299 308 295 297 319 319 317 319 318 314 315 306 300 308 297 315 316 312 313 311 317 311 310 309 305 310 311 310 303 298 297 296 297 296 296 297
310 311 308 294 294 294 295 319 316 316 310 313 314 314 314 314 313 312 314 312 309 308 311 313 308 306 305 305 307 309 308 305 302 299 295 295 295 294
316 317 315 292 292 293 295 297 295 297 312 314 313 313 313 313 313 313 315 314 313 313 314 313 307 304 300 300 301 306 308 307 306 302 303 298 294 294
323 310 298 294 292 293 292 293 291 310 312 313 314 315 315 315 315 313 315 314 313 313 311 308 307 307 304 299 300 301 300 304 305 304 303 302 300 299
308 315 309 304 302 304 307 304 310 314 315 317 316 316 315 314 314 314 313 311 306 304 308 311 311 308 304 302 301 303 302 299 304 303 304 302 301 299
315 319 316 315 315 317 318 319 320 320 318 318 316 316 317 315 314 313 308 307 307 308 308 310 312 312 309 307 303 304 304 304 306 304 304 299 299 299
312 318 320 320 319 322 325 326 325 314 320 315 314 311 309 306 305 306 307 306 305 306 306 307 307 305 305 307 305 303 304 304 305 304 301 296 296 298
317 322 321 321 322 324 324 322 317 312 311 309 307 306 304 305 305 305 306 305 305 305 306 306 305 302 297 295 303 300 301 302 302 301 300 297 294 296
320 320 321 323 321 317 314 309 308 307 303 302 303 303 304 304 304 304 304 304 303 303 303 304 303 299 297 297 298 301 291 301 300 298 297 296 296 295
320 320 320 317 310 308 304 305 303 301 303 303 303 304 304 303 302 302 302 293 296 302 300 300 301 288 303 302 298 299 302 293 293 294 292 289 291 293
317 312 306 304 306 303 300 301 299 298 299 303 302 302 301 302 301 301 301 301 300 299 299 301 302 301 299 295 293 294 296 296 294 293 293 292 291 292
308 304 305 306 306 300 303 305 305 302 301 300 300 300 301 300 301 301 301 300 300 298 297 297 298 298 294 292 290 292 291 291 291 291 292 293 293 293

GFSNE_sfc_thetae_009.txt.gz
Theta_e
335 328 329 327 327 323 324 326 321 316 318 325 325 334 337 336 334 334 332 323 323 320 319 319 320 321 321 321 320 317 317 315 312 311 309 309 308 307
334 327 325 323 324 323 322 322 323 321 320 327 327 332 334 332 329 331 326 320 320 318 317 317 317 318 318 317 315 315 314 313 312 309 308 307 306 305
327 325 323 322 321 320 320 322 323 324 320 325 328 332 334 330 325 329 323 320 318 317 317 316 314 314 315 314 313 313 312 311 310 308 306 305 304 304
327 325 322 324 322 321 319 321 326 328 324 323 328 327 327 332 327 333 326 322 323 317 316 314 312 311 312 311 310 310 309 309 308 308 307 305 303 303
328 325 325 324 323 324 324 326 331 330 327 323 322 325 326 328 328 332 333 334 327 317 313 312 311 311 311 310 308 308 306 305 304 305 305 305 304 303
331 332 332 328 330 334 332 329 331 329 330 324 322 323 324 329 328 324 323 325 323 318 314 312 309 310 311 310 309 308 305 303 302 301 302 302 302 302
335 333 335 330 323 326 332 333 333 327 322 321 320 320 320 322 323 325 323 325 327 325 320 315 312 310 311 309 309 308 305 303 301 301 300 299 299 299
326 327 326 321 314 309 311 313 326 335 332 320 320 321 329 327 325 324 324 321 318 329 324 322 323 318 316 315 309 305 304 303 301 300 300 299 298 298
332 330 324 320 322 325 311 309 310 310 315 332 329 329 332 332 333 332 329 327 323 328 329 321 325 322 323 317 307 304 302 301 300 299 299 298 298 297
331 329 329 328 324 324 324 324 324 325 326 326 333 334 334 335 338 334 335 333 330 329 330 319 325 322 324 324 307 303 300 299 299 298 298 298 297 296
326 327 328 327 304 304 323 323 324 324 301 302 301 298 297 297 304 324 322 320 319 321 328 324 323 321 321 319 318 302 300 299 298 297 298 298 297 296
322 319 302 314 299 299 324 323 321 323 321 316 318 314 304 312 299 313 317 313 314 315 324 319 316 319 313 318 316 307 304 299 298 298 298 298 297 299
312 312 311 297 296 295 295 323 317 314 316 319 318 318 321 322 318 318 318 312 309 311 315 310 307 307 305 302 303 305 310 306 303 300 297 297 296 297
317 316 312 294 294 294 297 296 297 301 313 314 316 317 318 318 320 320 323 320 318 315 312 313 307 303 302 303 303 307 308 309 309 304 305 300 295 295
321 303 294 292 292 293 292 294 293 312 314 315 317 320 321 321 322 322 325 321 315 314 314 316 312 310 307 306 306 306 305 308 309 307 308 306 304 300
309 314 311 307 304 306 308 303 311 314 315 318 319 320 321 320 319 315 314 312 310 312 317 318 318 314 308 309 308 306 308 304 308 307 306 306 306 304
317 320 319 318 317 317 317 319 321 321 321 322 319 316 314 311 308 309 309 309 307 306 308 310 314 315 313 313 307 307 306 306 305 305 305 302 302 302
313 321 321 321 321 322 322 324 321 315 316 316 312 310 308 308 305 304 305 305 303 305 305 307 307 306 305 306 304 302 302 302 303 305 302 301 301 304
317 320 322 324 323 325 325 322 313 311 311 309 305 304 303 303 302 303 303 303 302 303 304 304 305 300 296 295 301 301 301 302 301 302 302 300 296 296
320 322 323 323 324 322 317 312 309 307 307 304 303 303 304 303 302 302 302 301 301 301 302 302 302 300 297 297 297 301 293 300 299 298 297 299 297 293
322 323 325 322 318 313 311 309 306 307 305 305 305 306 305 303 302 302 301 293 295 300 298 298 301 289 301 300 296 296 298 295 295 295 294 292 290 291
324 322 319 315 312 310 309 309 307 304 305 304 303 302 302 303 302 301 301 300 299 298 297 298 300 299 298 294 292 293 295 295 295 295 295 293 290 288
318 313 311 309 310 310 307 304 303 302 302 301 301 302 303 301 302 302 300 300 299 298 297 296 296 296 294 293 290 291 291 293 293 291 292 295 294 293

GFSNE_sfc_thetae_012.txt.gz
Theta_e
331 328 327 326 325 325 324 323 320 315 316 323 323 330 331 333 331 329 326 325 324 321 320 320 321 321 322 322 321 322 321 319 318 317 314 313 312 311
327 326 324 324 325 324 324 323 324 321 316 324 325 329 332 334 332 330 328 324 323 320 319 318 318 318 318 318 318 318 317 316 315 315 314 313 311 310
326 323 322 324 323 322 324 323 323 322 319 323 326 330 328 327 328 328 324 321 318 318 318 317 315 315 315 315 315 315 315 314 313 313 312 311 311 308
325 323 322 323 321 321 323 321 322 322 322 320 322 326 325 323 322 323 319 316 315 317 316 315 313 313 312 312 312 311 311 310 310 310 310 310 309 307
324 322 321 321 321 321 321 320 320 325 324 322 321 321 321 318 318 323 323 321 319 319 314 314 312 312 311 310 310 309 307 306 306 306 307 308 308 307
326 324 323 323 323 323 322 322 326 324 323 321 321 318 319 322 318 320 321 322 320 316 315 312 311 311 311 310 310 310 306 304 303 303 303 303 303 304
326 326 325 324 323 324 327 325 327 322 321 319 317 318 319 319 319 321 318 319 319 321 311 308 306 305 305 309 309 312 308 304 303 302 301 300 300 300
328 326 323 318 316 314 316 314 320 320 319 318 318 316 316 319 319 319 319 316 314 322 317 315 308 306 305 306 307 305 305 305 303 302 301 300 299 298
325 324 324 324 321 319 309 310 310 309 315 328 321 320 321 323 322 321 319 318 319 320 317 314 318 316 316 314 308 305 303 302 301 301 300 300 299 297
328 325 320 324 319 323 323 322 322 322 322 325 326 324 319 317 323 325 324 323 323 323 322 316 318 318 319 319 311 305 303 300 300 300 300 299 298 296
324 323 328 322 304 304 323 321 321 316 303 302 300 299 298 298 302 317 316 315 313 315 319 318 316 314 316 317 317 305 301 299 299 299 300 299 297 296
321 312 305 314 300 301 320 321 318 319 311 307 309 304 301 306 300 309 310 307 305 304 308 305 303 302 301 307 304 304 303 300 299 298 299 299 297 296
316 314 307 298 297 297 303 317 309 309 313 315 314 316 318 318 313 312 312 309 306 305 309 308 305 305 302 300 302 305 306 305 302 299 298 297 297 296
312 313 305 295 295 295 300 296 297 304 312 312 313 315 317 316 314 317 317 315 313 311 313 310 307 304 302 301 301 304 306 305 304 304 300 299 296 296
313 307 295 294 295 295 294 296 297 310 312 313 315 318 318 317 310 313 313 313 314 314 312 310 309 306 305 302 301 303 303 303 305 305 302 301 301 297
303 301 299 301 302 305 301 297 307 311 313 315 316 315 311 310 307 308 306 306 304 304 308 310 311 310 305 303 302 299 300 297 300 301 301 301 300 300
318 315 315 314 313 313 314 315 315 315 316 317 315 311 308 307 304 305 303 302 300 300 301 303 304 305 303 302 297 297 297 297 299 299 299 298 297 299
312 317 317 317 317 317 317 318 316 313 314 310 306 305 303 302 301 302 302 301 299 299 298 300 300 298 298 299 302 297 297 296 297 298 297 295 294 296
313 316 319 321 321 322 317 313 308 309 307 306 305 303 303 302 300 300 301 300 298 298 298 299 298 296 292 290 296 298 294 294 294 293 293 292 291 292
315 316 319 322 322 317 312 307 307 306 305 304 303 303 302 301 300 299 299 298 297 297 297 297 296 294 292 291 292 294 293 293 292 290 291 292 292 293
313 316 324 321 314 311 309 308 306 305 304 303 303 303 301 300 299 299 298 292 293 296 293 293 295 288 296 295 290 290 292 294 294 292 292 290 289 289
319 322 318 313 312 308 305 306 304 303 303 303 301 301 301 300 299 299 298 296 295 294 294 294 295 294 291 288 287 288 289 291 294 295 295 293 289 286
323 318 313 311 309 309 307 304 304 302 299 300 301 301 301 299 300 299 298 297 295 294 293 290 291 290 289 288 288 288 288 290 291 291 292 295 294 294

GFSNE_sfc_thetae_015.txt.gz
Theta_e
325 324 325 323 323 324 325 324 320 315 317 323 324 329 331 332 330 326 324 324 323 321 320 321 321 322 322 322 322 322 323 323 323 321 319 317 315 315
325 324 324 324 323 324 325 325 323 320 317 323 323 327 330 332 331 326 324 324 322 320 319 318 318 318 318 318 318 319 320 320 318 318 318 317 316 314
323 323 323 324 324 324 325 325 323 323 319 321 326 327 327 328 328 328 326 322 321 319 319 317 315 315 315 315 315 317 317 317 316 315 315 315 315 313
320 323 322 323 323 324 325 323 322 322 322 319 323 324 323 324 325 320 321 323 318 319 318 316 314 312 312 312 312 312 312 312 312 313 313 313 313 312
322 322 322 322 322 323 323 322 322 325 322 320 318 320 318 316 317 318 313 311 314 317 315 314 313 311 311 311 310 310 308 307 306 307 309 310 310 311
323 323 322 323 322 322 323 320 320 320 322 319 316 314 314 313 311 311 315 317 317 316 315 312 312 312 311 310 310 310 307 305 304 304 304 304 304 306
323 324 324 323 322 322 322 319 320 319 318 315 313 312 311 312 309 311 314 314 315 312 308 307 306 306 308 310 311 312 308 306 304 304 303 302 301 301
323 323 322 321 319 317 316 316 320 317 313 313 312 312 312 314 314 315 314 311 310 316 311 307 306 303 305 304 307 306 305 305 305 304 303 302 301 300
323 322 324 325 320 321 309 308 310 311 314 314 313 313 311 315 315 312 311 312 312 316 313 310 309 306 307 308 305 304 303 302 302 302 302 302 301 299
321 321 321 318 317 315 315 316 316 315 316 323 318 315 315 316 318 318 316 315 315 316 315 311 312 311 314 314 307 304 303 302 301 300 301 300 299 298
318 316 318 314 305 308 316 314 313 308 302 302 302 299 298 302 308 313 311 308 304 305 304 303 302 300 302 304 306 303 301 300 299 299 300 299 299 298
308 311 309 308 300 307 314 314 311 309 305 304 303 299 298 299 301 305 307 301 300 298 304 301 300 300 299 303 305 304 304 302 300 299 299 299 298 296
308 305 305 297 300 302 308 313 310 307 306 309 309 309 310 309 304 307 305 303 301 301 305 303 300 301 301 300 300 302 302 302 301 300 300 299 298 297
308 305 298 294 295 296 297 295 298 303 305 305 307 309 307 308 309 309 308 308 308 306 309 308 304 302 298 296 296 299 301 301 300 300 300 300 298 297
306 303 295 294 294 294 294 297 299 303 304 307 308 305 302 302 303 303 303 304 305 306 308 306 303 301 299 297 296 296 295 296 297 297 298 299 298 296
298 296 295 294 295 295 293 293 298 303 306 309 304 303 302 301 300 300 299 299 300 298 300 301 299 297 295 294 293 292 293 291 294 295 296 297 297 296
302 300 299 296 299 302 304 301 303 306 310 307 303 301 299 299 299 298 298 296 295 294 294 297 298 297 296 294 292 292 292 292 294 294 294 292 293 293
308 306 305 305 304 305 306 308 309 308 303 302 300 300 298 297 297 297 296 294 293 293 294 294 294 292 293 294 298 293 292 291 292 292 290 289 289 291
305 308 308 309 310 311 310 305 303 301 301 301 299 298 298 296 296 296 295 295 294 293 293 292 291 290 286 286 292 296 290 290 290 289 291 290 289 290
304 306 308 312 314 310 305 302 302 301 301 300 300 298 296 296 295 294 294 293 293 291 291 291 290 289 287 286 287 290 292 289 289 288 289 292 290 292
306 307 309 312 309 305 303 302 301 301 301 300 300 298 296 297 295 295 293 289 289 291 289 289 291 288 291 289 284 284 287 292 292 289 291 290 290 290
307 308 308 306 304 304 302 302 300 298 300 298 296 297 297 296 294 293 292 292 291 291 290 290 291 290 287 284 283 284 286 287 292 294 294 293 290 287
310 310 307 304 303 303 301 300 299 299 298 298 299 297 296 294 294 295 293 292 292 290 290 288 288 287 285 284 283 285 285 286 287 286 288 293 293 294

GFSNE_sfc_thetae_021.txt.gz
Theta_e
317 318 319 319 322 323 323 322 318 314 316 322 323 329 330 330 330 327 325 324 324 320 319 320 321 323 323 323 323 323 323 324 324 326 327 325 323 321
320 319 321 320 323 323 322 322 321 320 316 322 325 328 329 329 330 326 325 324 321 320 320 318 318 319 319 319 319 320 321 321 321 321 323 324 323 322
323 322 321 321 322 322 323 323 323 323 319 323 326 328 327 327 327 326 325 323 322 321 319 318 316 316 316 316 316 317 318 318 318 319 319 320 320 320
323 322 322 323 321 321 324 323 323 324 322 320 324 325 326 327 325 323 324 324 319 319 318 317 315 314 313 313 312 313 312 312 313 315 316 317 318 318
323 323 323 324 322 322 324 323 324 324 324 322 321 322 321 323 321 317 318 317 319 321 316 315 314 314 313 312 311 310 308 307 307 308 309 311 313 314
322 324 324 324 323 323 323 323 323 322 322 321 319 317 317 316 318 317 314 311 311 314 314 314 314 314 313 312 312 312 308 306 305 305 305 305 305 306
322 323 324 323 320 320 323 322 322 320 319 317 315 313 312 311 314 312 312 309 311 312 311 310 309 308 308 309 311 311 308 306 305 304 304 302 301 302
321 322 322 319 316 313 314 315 319 318 316 315 312 310 309 309 307 308 307 307 307 311 310 310 308 308 307 306 307 305 304 303 303 303 302 301 301 300
322 322 324 322 320 321 312 312 310 310 312 316 314 312 309 310 308 306 306 307 309 311 311 309 308 305 307 305 304 303 302 301 301 301 301 300 299 298
322 322 323 322 320 320 319 314 314 313 314 316 315 314 312 311 312 312 311 310 309 304 306 305 300 299 301 304 303 301 300 299 299 299 299 299 298 297
322 322 323 320 305 305 314 311 310 308 302 304 301 300 300 305 310 315 310 309 303 301 302 300 298 301 302 300 302 301 299 298 298 298 299 298 298 297
319 318 310 315 300 301 312 309 309 307 307 305 303 299 300 300 302 307 308 301 297 298 301 302 300 298 297 298 298 297 295 298 298 297 298 298 297 295
315 313 313 301 298 298 304 308 307 304 302 303 303 304 303 303 301 301 301 302 299 298 302 300 297 297 295 294 295 295 294 293 293 293 296 295 296 295
313 312 306 297 297 297 303 300 295 301 304 305 305 304 304 303 303 303 302 301 301 300 299 301 296 294 291 289 289 292 291 291 291 291 291 293 294 294
310 305 295 294 294 297 295 295 298 303 304 303 302 300 301 302 300 300 299 298 298 298 298 295 293 291 290 288 288 288 288 289 291 289 290 290 290 290
298 296 295 295 295 296 297 298 301 305 305 302 299 298 297 298 297 297 296 295 294 292 294 294 291 290 287 288 288 286 286 286 288 287 287 287 290 290
294 292 292 293 293 292 293 297 301 303 301 298 297 296 296 296 295 295 294 292 291 289 288 289 290 290 290 289 286 285 285 285 285 286 287 286 287 288
294 292 291 292 294 293 294 295 299 302 300 299 296 297 296 296 295 293 292 291 290 288 287 287 286 285 285 286 292 285 284 283 286 286 286 285 285 288
297 293 293 292 294 295 298 299 300 302 299 298 297 296 296 295 294 293 293 292 289 288 287 287 285 283 280 279 284 292 285 284 285 284 285 285 285 286
299 297 296 295 295 297 300 301 301 298 298 296 296 295 296 295 294 293 294 292 290 288 287 286 286 284 282 281 283 285 288 283 283 283 282 283 285 289
301 301 301 300 300 300 302 303 302 300 299 297 295 296 296 297 295 294 293 289 288 288 286 286 287 285 286 285 281 281 284 289 289 283 282 281 280 279
305 305 305 305 306 306 303 303 302 297 297 297 296 297 298 298 295 294 292 290 289 288 288 288 288 286 284 282 277 280 280 281 286 288 289 286 276 275
303 306 306 305 308 307 304 303 301 300 299 298 298 297 298 296 295 294 293 292 290 289 288 286 284 284 283 282 276 275 279 278 278 278 279 287 287 288

GFSNE_sfc_thetae_024.txt.gz
Theta_e
322 323 323 324 326 325 325 321 317 315 316 322 323 328 330 330 331 329 328 324 323 321 320 321 322 323 324 324 324 324 324 324 324 325 327 327 325 324
322 323 324 324 324 325 324 324 323 320 316 323 324 326 328 329 330 327 326 325 322 320 321 319 318 319 320 320 320 321 321 321 321 321 322 323 324 324
323 323 323 324 324 324 326 326 324 324 319 323 325 327 326 326 326 326 326 324 323 320 320 318 316 316 317 317 317 318 318 318 318 319 319 319 320 321
323 324 323 324 323 325 325 326 324 326 323 320 324 324 325 325 324 324 325 326 325 321 318 317 315 315 314 314 313 313 311 311 311 312 313 314 316 316
324 324 324 325 324 325 325 324 325 325 324 323 321 325 325 325 322 321 321 321 322 322 316 316 314 314 313 312 311 310 308 307 306 306 308 308 309 309
324 325 325 324 323 324 324 324 324 323 324 322 321 321 320 321 321 317 316 320 320 318 316 314 313 313 312 311 312 312 308 305 304 303 303 303 303 304
324 324 326 324 320 322 324 323 323 322 321 320 317 317 315 319 321 319 318 317 317 318 318 315 316 315 312 311 310 308 305 303 302 302 301 300 300 300
322 322 321 318 315 312 313 313 318 320 318 317 315 316 315 318 316 318 315 314 313 317 318 312 313 309 309 308 305 303 302 302 301 301 300 299 299 298
322 323 323 320 320 320 311 311 312 312 315 320 319 319 316 316 317 313 313 314 316 315 319 309 310 307 307 304 302 301 300 299 299 299 299 298 298 297
324 324 322 322 320 321 320 318 317 318 320 321 324 320 321 317 318 317 317 315 311 309 317 309 307 305 307 304 301 300 298 297 297 297 297 297 297 296
323 323 324 321 304 306 318 316 314 312 303 301 302 303 301 303 311 318 316 316 310 308 308 308 306 306 306 303 302 299 298 297 296 297 297 297 296 296
322 319 310 318 299 303 317 316 315 312 309 309 309 306 306 304 305 320 318 313 305 306 309 307 306 307 304 305 302 300 301 297 296 295 296 295 295 297
320 319 319 301 299 299 304 314 313 309 305 308 307 307 307 308 308 308 310 310 307 307 309 308 306 306 305 303 303 300 299 298 296 296 294 294 294 294
320 319 315 298 298 297 304 300 296 303 309 308 308 307 307 306 304 304 305 304 304 306 308 308 303 303 301 297 296 297 297 298 295 294 295 294 294 294
319 311 297 295 296 298 298 295 299 310 310 309 308 307 308 304 303 302 302 302 301 300 300 302 301 299 298 296 295 292 292 295 294 293 293 293 293 294
301 301 298 299 298 301 301 302 309 311 311 310 309 306 304 303 302 302 299 298 296 296 298 299 299 299 294 294 292 291 292 290 292 292 292 293 293 294
300 301 301 301 302 302 303 305 308 309 308 306 305 303 302 302 301 302 300 299 295 293 294 296 298 298 297 295 291 291 290 290 291 290 290 289 291 292
302 302 303 303 303 303 303 303 308 306 307 306 304 304 302 301 300 300 299 297 293 293 293 293 294 293 292 293 294 290 290 289 290 289 289 287 287 290
307 302 304 304 304 303 303 303 305 309 306 306 304 303 302 301 299 299 297 295 293 294 293 293 292 291 289 287 291 292 289 289 289 288 287 287 286 288
303 304 303 303 303 303 302 302 304 306 304 302 302 302 301 300 299 298 296 294 294 293 293 293 292 291 290 289 289 291 288 289 288 286 286 287 288 288
303 304 304 302 301 302 304 304 305 306 304 303 302 301 301 300 299 298 295 291 290 292 291 291 293 287 293 292 288 288 289 289 288 287 287 286 285 286
305 305 306 304 303 301 302 305 306 303 303 303 302 301 301 301 299 298 295 292 292 293 293 293 292 292 290 288 286 285 286 287 288 287 288 287 285 282
308 307 307 308 307 306 305 305 306 306 305 304 302 302 301 300 300 297 294 293 292 291 291 290 290 290 287 287 285 285 284 284 284 284 286 286 286 287

GFSNE_sfc_thetae_027.txt.gz
Theta_e
333 329 328 332 333 333 333 327 324 318 319 323 324 327 328 329 330 329 328 324 324 321 321 321 322 324 324 325 325 325 325 325 325 324 324 324 325 325
331 330 331 332 332 331 329 329 330 326 318 325 324 326 328 329 330 330 328 325 322 320 320 319 319 320 321 321 322 322 323 323 322 322 321 322 322 322
328 328 327 330 330 330 330 329 327 326 321 322 325 327 326 326 327 327 328 326 324 320 321 319 317 317 318 318 318 319 319 319 318 317 317 317 317 317
327 327 327 328 330 329 331 330 328 326 323 320 322 323 324 325 325 325 325 326 326 321 318 317 315 315 316 315 315 314 312 311 310 311 311 311 311 312
328 327 328 330 330 329 327 328 327 328 325 322 320 323 323 324 324 324 323 324 325 322 317 317 316 316 315 313 312 310 307 305 305 306 306 307 307 308
329 330 329 330 329 327 326 327 326 324 324 323 321 321 322 323 322 318 318 323 322 325 316 316 315 312 311 311 309 307 304 302 302 302 302 301 302 303
328 329 330 327 322 325 326 328 327 323 322 321 320 320 319 320 319 321 321 323 322 324 323 323 320 316 313 308 308 305 303 302 301 301 300 299 299 299
326 326 325 321 317 312 313 314 323 323 321 320 320 319 320 320 321 323 319 319 317 325 317 314 315 313 313 309 303 302 301 300 300 299 299 298 298 297
324 325 323 321 322 320 312 311 311 310 315 323 321 321 320 324 327 323 323 321 322 322 316 311 313 309 308 304 301 299 299 298 298 298 298 297 297 296
325 325 324 323 323 323 322 320 321 323 323 326 328 327 329 329 330 329 325 321 321 321 321 310 313 308 307 305 300 298 297 296 296 297 297 296 296 296
327 326 324 328 303 307 320 320 320 319 304 302 303 302 303 306 316 322 319 320 317 318 319 313 311 309 309 306 303 298 296 295 295 295 296 296 295 295
324 321 310 321 300 305 325 326 323 320 319 321 321 313 316 311 309 330 325 322 319 314 317 314 312 311 308 309 307 305 305 297 296 295 295 295 294 300
325 325 325 299 300 302 308 328 321 320 313 322 321 321 322 322 322 325 328 326 318 317 315 317 313 312 313 309 309 304 306 301 301 301 296 294 294 294
326 327 324 298 298 299 310 295 298 309 320 320 317 315 316 315 315 316 317 317 319 319 315 318 313 312 307 303 302 302 303 303 300 299 299 297 295 294
330 316 299 296 295 301 295 296 302 317 318 317 315 315 315 313 313 311 311 310 309 308 308 311 309 306 304 301 299 299 300 302 299 298 299 298 297 298
306 313 306 305 301 309 309 307 319 320 319 319 317 316 313 312 311 311 309 308 305 302 305 307 307 305 300 300 300 298 299 298 298 298 298 298 298 297
315 317 319 319 319 319 320 320 320 319 318 319 317 313 312 312 311 311 309 308 306 301 300 302 305 305 302 300 298 298 299 299 298 296 296 295 296 296
319 321 318 318 317 318 318 318 318 313 318 318 317 315 312 311 310 310 310 308 304 301 300 300 299 298 298 297 296 299 298 297 297 296 295 293 293 295
321 321 320 319 318 318 319 319 317 319 320 317 317 315 313 313 308 309 308 305 302 299 297 298 299 297 295 293 297 291 295 296 295 295 294 293 292 293
317 319 318 319 320 319 318 317 318 318 317 317 315 315 314 312 310 309 307 305 298 299 297 297 297 297 296 297 295 295 288 293 292 292 291 292 292 288
315 315 317 318 317 317 318 317 317 317 316 315 314 314 314 312 311 310 307 294 294 296 294 294 293 288 296 295 292 291 291 288 288 289 289 287 288 290
319 317 316 316 316 315 315 316 315 313 314 314 314 313 312 312 311 309 306 300 296 295 294 293 295 295 293 290 290 288 290 290 289 287 287 286 288 286
321 320 318 317 316 314 314 312 313 313 314 313 313 312 312 310 310 308 302 297 294 292 294 295 293 293 290 289 288 289 286 287 287 287 288 286 285 286

GFSNE_sfc_thetae_030.txt.gz
Theta_e
333 327 338 335 338 340 339 336 324 318 319 325 327 330 330 328 328 328 327 324 325 321 321 321 323 324 325 326 327 326 326 324 323 323 323 324 324 324
334 333 335 338 335 337 332 330 334 324 320 326 326 328 327 327 329 327 326 324 322 320 321 320 320 321 322 323 324 325 324 322 320 321 320 320 320 320
335 334 332 336 333 330 332 334 331 333 322 324 325 326 326 325 327 327 329 328 324 320 321 320 319 319 320 321 322 323 322 319 317 316 315 315 315 315
329 329 330 332 332 334 338 332 330 326 323 318 323 323 324 326 326 326 325 326 325 321 319 318 316 317 318 320 319 315 313 312 312 312 312 312 312 312
330 331 330 330 331 332 333 330 331 326 325 321 320 323 323 324 323 324 323 325 326 321 317 316 317 316 314 313 311 308 305 305 305 306 307 307 307 306
332 333 333 332 332 327 332 329 330 324 323 321 320 320 321 323 323 319 318 322 323 324 317 317 315 312 309 308 307 305 303 302 301 301 301 301 301 302
333 332 334 329 323 325 333 331 327 324 321 320 319 319 319 319 319 320 320 321 324 324 322 321 320 317 313 309 306 304 302 301 300 300 300 299 298 299
330 330 332 325 319 311 313 316 324 324 321 320 319 318 319 321 321 321 319 319 317 328 324 320 322 317 316 310 302 301 300 300 299 299 299 298 298 297
330 329 328 327 326 325 311 311 311 310 317 323 321 322 321 323 323 322 322 322 320 321 320 315 319 312 309 303 300 299 298 298 298 298 297 297 297 296
329 328 329 325 323 323 323 325 323 322 325 325 325 325 326 331 330 324 329 330 326 322 324 314 316 311 308 304 298 298 297 296 296 296 296 296 296 296
330 327 328 324 303 308 322 322 318 316 306 306 310 310 308 310 322 328 324 322 319 321 324 318 315 311 309 306 302 297 296 295 295 295 296 295 295 295
330 325 309 315 303 308 326 324 326 327 327 324 320 314 317 314 309 332 327 322 322 321 324 316 313 313 310 313 309 304 303 296 296 296 296 295 294 303
326 327 322 299 301 306 313 328 323 327 320 328 328 328 327 326 327 332 333 329 324 321 321 322 317 317 317 312 312 308 308 304 306 302 296 296 295 294
326 329 321 298 299 301 311 300 302 314 326 324 324 322 323 325 328 330 330 329 327 327 323 325 320 319 316 312 309 306 307 306 307 306 306 299 296 295
330 311 299 296 296 301 297 300 303 326 326 325 324 324 324 323 321 319 320 318 319 319 319 322 319 319 315 306 304 303 303 305 306 305 304 304 302 302
309 320 312 308 302 309 307 311 327 326 324 322 319 318 318 318 318 319 316 316 313 310 312 313 313 311 306 306 305 302 303 303 305 304 302 303 305 304
325 326 327 326 325 324 324 325 326 326 324 325 322 319 318 318 318 319 318 316 313 308 305 307 309 309 307 306 302 303 302 304 304 302 301 299 302 303
325 327 328 326 323 324 324 325 326 320 324 323 322 320 318 318 317 317 317 316 315 310 307 305 304 302 300 299 297 303 303 302 302 302 299 295 296 299
328 329 327 324 322 322 323 323 323 324 325 323 322 321 319 318 315 316 316 316 314 311 308 305 302 301 298 296 296 290 299 300 298 297 296 295 294 296
322 322 322 322 321 320 321 321 322 323 323 323 322 322 320 318 316 316 316 315 313 308 304 304 302 300 297 297 298 296 287 295 294 293 295 295 295 291
321 320 322 322 322 323 322 322 322 322 322 322 322 322 321 319 317 316 316 301 303 306 302 298 297 290 298 298 296 293 293 288 290 292 292 290 292 293
320 319 320 321 322 321 321 322 321 320 322 322 322 322 321 320 317 316 316 311 307 303 299 295 296 296 294 293 293 293 293 296 290 288 287 285 289 290
323 322 321 320 321 321 321 320 319 320 320 321 321 321 320 318 317 317 316 310 303 297 298 296 296 296 294 293 292 293 293 293 294 293 294 288 288 287

GFSNE_sfc_thetae_033.txt.gz
Theta_e
336 335 337 337 335 339 341 340 325 319 322 327 326 333 332 330 329 328 327 325 325 322 321 322 324 325 326 326 327 326 326 326 326 325 324 324 324 323
335 334 334 338 337 333 334 338 336 330 320 326 329 328 327 326 328 327 327 326 322 321 321 320 320 321 322 324 324 324 325 324 323 321 321 320 319 319
332 333 332 331 337 331 334 334 333 333 324 326 328 325 324 324 325 326 327 327 323 320 321 319 319 319 320 321 322 322 322 320 318 317 317 316 316 315
333 332 330 333 333 335 336 333 330 333 324 320 323 323 323 323 323 323 325 327 324 320 319 318 317 317 319 319 316 314 313 313 313 314 314 314 313 312
330 332 329 332 331 327 327 327 328 326 324 321 319 322 322 324 322 323 322 323 324 320 316 315 315 315 313 311 309 307 306 306 306 307 308 307 307 307
333 334 330 331 326 328 327 325 324 323 323 320 319 319 321 322 321 319 318 321 319 323 316 316 314 310 309 308 307 305 303 301 301 301 301 301 302 303
334 333 333 327 321 324 329 326 324 321 320 319 318 319 318 318 317 319 318 319 319 321 318 316 315 313 310 308 306 303 302 301 300 300 299 298 299 300
332 333 331 325 318 311 316 318 324 323 320 319 318 317 318 319 320 319 318 318 316 324 322 320 320 314 314 306 302 301 300 300 299 299 299 298 298 298
332 331 330 329 327 325 312 311 311 311 316 322 320 320 319 320 320 317 317 322 322 327 325 318 319 313 307 301 300 299 298 298 298 298 298 297 297 296
332 331 328 328 327 328 326 323 323 324 324 325 324 324 324 322 319 318 322 329 325 323 327 315 317 309 308 302 298 298 297 296 296 296 296 296 296 296
331 330 326 324 305 308 323 319 319 319 310 309 309 307 305 309 319 325 325 321 317 319 326 319 316 311 308 303 299 297 296 295 295 295 295 296 295 295
325 322 306 317 303 308 326 321 319 320 322 323 322 313 317 317 310 331 328 322 320 319 326 320 316 313 308 309 302 298 297 296 296 296 296 295 295 304
326 325 320 301 304 307 314 331 325 325 319 327 328 327 328 328 328 331 332 334 326 325 325 324 317 314 316 311 311 309 309 303 303 299 296 297 296 295
324 326 317 299 302 304 316 303 305 317 330 327 328 327 327 329 329 332 336 331 328 331 327 331 320 318 317 313 311 310 308 309 307 306 305 300 297 295
330 312 298 298 299 305 301 303 304 329 328 327 324 323 323 328 330 329 326 324 325 326 325 327 325 326 321 316 310 308 305 307 307 305 305 304 303 303
309 315 313 309 302 314 314 315 326 327 325 324 325 326 328 324 323 323 319 318 316 315 318 320 323 321 316 312 309 306 305 303 307 305 304 304 304 303
325 327 325 325 322 323 323 324 327 327 326 325 323 320 319 319 319 321 319 318 315 313 311 311 314 314 311 309 305 305 304 304 304 303 302 301 303 302
326 326 325 324 323 323 323 324 326 322 327 326 324 321 319 318 319 320 320 319 316 313 310 309 307 306 305 301 298 304 303 302 302 302 301 295 296 300
327 327 326 324 322 322 323 323 323 325 329 325 324 322 320 319 316 318 318 318 317 317 313 310 306 303 297 295 296 290 303 301 299 298 298 297 295 297
328 328 326 326 324 322 322 323 324 326 325 324 324 324 324 320 318 317 317 317 317 316 313 310 306 303 300 300 298 293 287 297 295 295 295 297 296 294
327 327 326 326 325 323 324 324 326 325 325 326 325 325 325 323 321 318 317 302 307 316 312 308 307 292 304 304 298 293 291 289 292 294 294 291 292 294
320 320 321 323 324 323 323 323 321 324 325 327 326 325 326 325 321 319 318 318 315 316 311 306 302 302 300 298 296 295 294 294 291 290 288 289 291 289
322 322 321 321 323 324 324 324 324 324 325 325 325 325 326 323 325 323 321 319 317 314 308 300 299 298 296 296 293 293 294 295 295 295 294 290 290 290

GFSNE_sfc_thetae_036.txt.gz
Theta_e
329 329 332 331 331 329 326 325 321 316 318 324 325 330 331 332 330 327 326 324 324 321 319 319 321 324 325 326 326 326 326 326 327 327 327 325 324 323
331 328 328 329 330 330 328 326 326 322 317 323 325 327 327 328 330 326 326 325 323 322 321 321 320 321 322 323 322 322 323 322 321 322 322 321 320 319
328 327 326 326 329 331 331 327 326 326 320 323 325 325 324 324 325 326 327 326 324 321 321 319 318 319 320 320 320 321 320 319 318 318 318 318 318 316
327 326 326 328 325 328 327 326 326 326 322 319 321 321 322 324 325 324 325 326 324 320 319 318 317 316 317 316 314 314 313 313 314 315 315 315 314 312
328 327 326 327 326 326 325 325 326 326 323 320 318 321 321 323 322 322 322 321 322 319 316 315 314 314 313 311 310 308 307 306 307 308 309 309 309 307
330 328 327 327 325 324 323 323 324 323 322 320 318 319 320 321 320 318 317 320 319 319 314 313 311 310 309 308 307 306 303 302 301 301 302 302 303 303
329 329 327 324 323 324 324 322 322 321 320 319 317 317 317 317 316 317 315 316 315 316 311 310 308 306 306 307 306 304 302 301 300 299 299 299 299 300
327 327 326 321 317 315 316 316 320 320 319 318 317 316 316 318 318 315 315 312 311 318 313 312 312 307 306 302 303 301 300 300 299 299 299 298 298 297
329 329 327 325 323 321 310 312 311 311 315 321 318 318 317 319 318 317 316 315 315 317 317 311 312 302 300 299 300 299 298 298 298 298 298 297 297 296
330 329 328 327 324 324 323 322 321 322 322 323 322 321 321 321 321 320 319 322 321 320 318 310 307 301 300 296 299 298 297 296 296 296 297 296 296 296
328 326 325 322 306 307 322 320 320 318 309 308 308 306 304 307 315 318 320 316 313 315 319 312 308 303 300 297 296 298 296 295 295 295 295 295 294 295
323 319 307 314 305 308 322 321 319 320 321 320 317 310 310 310 307 321 321 316 314 314 318 312 309 307 302 300 296 294 294 296 295 295 295 295 295 297
322 321 315 303 307 308 312 323 320 322 316 322 323 323 323 323 321 322 327 323 317 318 320 319 310 308 309 302 298 295 295 294 293 294 296 296 296 295
323 321 308 300 304 309 313 302 304 314 324 324 323 323 323 323 323 325 326 325 324 325 322 319 313 310 309 305 302 301 301 301 298 299 296 296 296 296
327 307 297 300 300 303 302 303 306 325 324 323 322 323 325 327 327 322 321 321 320 321 324 323 320 314 313 310 309 303 302 303 303 301 301 296 294 294
306 311 309 309 307 312 311 312 326 327 325 324 324 325 325 324 323 322 317 315 312 311 315 311 315 315 315 311 306 301 301 300 301 300 298 297 299 299
320 321 320 321 320 321 324 324 324 323 324 323 321 320 321 321 320 320 317 314 311 308 307 307 309 303 299 303 302 301 300 300 301 298 296 296 295 296
323 322 321 321 320 319 320 321 324 321 324 323 321 320 318 317 317 317 316 314 312 310 307 305 304 302 301 299 295 301 300 300 300 298 296 291 291 294
325 324 322 322 321 322 321 321 322 323 324 323 321 318 317 317 310 316 315 315 314 312 308 305 303 301 296 294 292 290 297 299 297 295 294 293 291 292
325 326 325 324 322 322 322 322 322 324 323 323 323 321 319 317 316 316 315 314 313 313 309 306 303 301 296 294 293 288 288 295 294 293 292 293 292 294
324 326 328 327 324 323 322 322 323 322 323 322 322 322 321 318 316 315 315 301 305 313 310 306 304 295 301 298 291 289 289 290 291 292 291 288 287 288
326 326 327 327 327 324 323 322 322 320 322 323 321 321 321 321 318 317 315 313 310 312 310 299 300 299 297 296 291 289 288 289 290 291 290 290 288 284
322 324 325 322 322 323 322 321 320 320 321 322 322 322 321 320 321 319 317 315 313 312 301 297 297 297 294 293 290 289 291 292 292 289 289 291 291 291

GFSNE_sfc_thetae_042.txt.gz
Theta_e
322 320 322 323 324 321 319 318 315 312 316 321 324 329 331 329 329 331 328 324 322 320 320 320 320 321 323 325 325 326 326 327 328 328 328 328 327 325
322 321 320 323 324 324 319 319 318 318 316 321 324 326 326 326 326 325 323 322 320 319 320 320 319 321 322 321 322 323 324 324 324 324 325 324 323 321
321 321 320 321 322 322 320 321 318 318 316 319 324 324 322 322 320 320 320 320 320 319 320 319 318 318 318 318 318 319 320 320 320 320 320 320 320 320
322 322 320 324 321 321 319 317 318 319 320 317 321 321 320 321 320 319 319 319 318 319 318 317 316 315 314 314 314 314 313 314 315 316 317 317 317 315
323 323 322 323 320 322 319 319 319 322 321 319 318 322 319 321 319 320 319 320 322 321 316 315 314 314 313 312 311 310 308 307 308 310 312 312 312 310
325 325 324 323 321 322 322 322 322 321 319 319 318 318 318 321 320 318 317 319 316 316 314 313 313 312 311 310 310 309 306 305 304 304 305 304 305 305
325 325 325 323 321 321 323 323 322 320 318 318 317 317 317 316 316 316 314 314 313 313 310 309 307 306 307 310 311 308 305 303 303 302 302 300 300 301
323 322 323 319 316 312 315 316 320 320 319 318 317 315 316 316 316 316 314 313 309 314 309 305 306 302 302 302 304 303 301 301 301 301 300 299 299 298
320 322 323 320 318 316 309 310 311 311 316 319 317 316 315 317 316 315 314 313 312 311 309 302 302 297 298 300 301 300 299 299 299 299 298 298 297 296
321 324 321 320 320 320 320 319 319 320 320 321 320 319 319 319 318 317 315 312 312 311 309 300 298 295 295 296 299 299 298 297 297 298 298 297 296 295
324 324 322 320 304 306 319 318 317 315 306 305 306 305 303 305 312 317 312 310 308 308 309 301 298 295 294 293 294 298 297 296 296 297 297 297 296 295
319 318 308 315 302 305 320 318 316 316 317 316 314 309 310 307 307 318 313 310 308 307 310 302 298 296 294 294 292 294 293 296 295 296 296 297 296 292
318 317 314 301 300 302 309 319 315 318 313 318 317 317 317 316 315 316 314 314 310 308 311 304 300 299 299 295 292 291 291 290 291 291 295 295 295 293
319 317 310 298 299 301 309 299 302 311 319 317 317 316 315 312 312 315 316 315 314 313 312 309 303 302 301 296 295 292 289 289 288 288 289 292 295 295
319 309 299 297 298 301 299 302 308 320 318 316 316 315 313 316 314 314 314 316 314 315 316 311 307 304 304 301 300 294 291 291 290 287 290 290 290 290
303 307 306 307 306 307 308 313 320 320 318 317 317 317 315 314 313 312 311 309 309 309 307 311 309 307 304 304 303 298 297 297 292 291 291 293 292 291
309 310 316 316 315 317 318 319 319 318 317 317 317 318 316 317 314 312 310 308 308 306 305 300 296 298 294 302 303 301 299 297 297 294 294 293 293 294
311 310 315 317 317 317 318 318 317 316 318 318 316 318 318 317 316 312 311 308 306 305 304 300 295 295 294 293 295 296 295 296 294 294 292 291 288 291
312 311 313 316 317 317 318 318 317 317 317 320 317 316 317 317 309 316 314 311 308 306 304 301 297 297 294 296 292 291 294 293 292 291 291 290 289 291
313 313 314 315 316 317 317 317 315 316 318 318 317 317 317 317 314 315 315 313 312 308 304 301 298 297 301 300 293 288 288 291 291 289 289 288 286 290
313 314 315 315 317 318 318 319 318 316 316 317 317 316 316 316 314 315 314 301 303 310 307 306 305 294 293 291 288 286 286 290 292 292 291 289 287 288
317 317 317 317 316 315 317 318 317 313 313 316 317 316 315 315 315 313 312 311 307 310 309 304 295 293 292 293 290 285 284 286 291 292 292 293 289 285
320 318 318 319 319 318 317 317 316 316 315 316 317 317 317 314 315 314 313 311 310 307 300 295 293 292 291 292 287 283 284 286 290 290 292 291 293 293

GFSNE_sfc_thetae_045.txt.gz
Theta_e
320 319 318 318 319 320 316 315 312 308 311 321 323 327 328 328 332 333 328 326 325 322 321 321 322 323 324 325 325 326 327 327 328 329 329 328 327 326
321 320 318 319 322 321 319 316 314 314 314 321 323 325 325 326 328 327 327 324 322 320 320 319 319 319 320 322 322 323 325 325 325 326 326 326 325 323
319 320 319 319 322 320 319 317 315 318 318 320 323 323 320 318 320 323 324 322 320 320 319 318 317 318 319 319 319 321 322 321 321 321 321 321 321 321
320 319 321 322 320 320 318 315 316 317 320 317 320 319 317 318 317 318 321 322 320 319 317 317 316 316 315 315 314 314 314 315 315 316 317 318 319 318
322 321 321 320 319 319 316 317 318 319 320 319 317 319 318 318 316 317 315 315 318 319 316 316 315 314 313 312 311 310 308 308 309 311 313 314 314 313
324 323 323 322 321 320 319 320 320 319 319 319 317 316 317 318 317 315 315 315 316 317 315 314 313 313 312 311 311 310 307 306 305 306 306 306 306 307
324 325 324 323 320 321 322 322 320 318 319 317 316 316 316 315 314 316 313 313 312 313 311 310 309 309 309 311 312 311 306 305 304 303 303 301 301 302
321 322 322 319 315 313 315 316 319 318 318 317 316 315 315 316 316 314 313 312 307 313 308 304 306 303 303 303 306 305 303 303 303 302 301 300 300 299
320 323 323 320 318 319 311 312 312 311 315 319 317 316 315 316 316 315 314 313 312 310 308 302 301 298 298 301 302 301 301 300 300 300 300 299 298 297
322 322 320 320 318 318 320 319 320 320 319 321 319 319 319 319 319 317 313 311 311 309 308 302 297 295 295 295 300 299 298 298 298 298 298 298 296 296
323 322 321 319 303 305 319 316 315 314 307 306 306 304 303 304 312 315 312 310 307 307 307 300 297 294 294 293 294 299 297 297 297 297 297 297 296 295
320 318 308 313 301 305 319 317 314 314 314 313 312 308 311 309 308 316 314 310 307 305 308 300 297 295 295 294 292 294 293 296 296 296 297 297 296 291
318 317 313 300 300 301 308 319 314 316 312 317 316 315 316 316 317 315 314 312 308 307 308 302 298 297 298 295 292 291 291 290 291 292 296 296 296 293
318 317 308 298 299 299 307 300 302 311 318 317 316 314 314 314 315 314 312 312 311 312 309 305 300 300 299 295 296 291 289 289 288 288 288 292 295 295
318 309 298 296 297 300 299 300 307 318 317 316 315 315 315 313 311 312 312 313 312 312 311 308 305 302 302 301 299 294 291 290 289 287 287 288 288 289
304 307 305 305 305 306 308 313 317 317 316 316 315 312 311 311 310 311 310 309 310 309 306 308 307 304 302 302 301 297 294 297 290 289 288 288 289 289
311 315 316 316 314 316 318 318 317 317 316 313 315 313 312 311 311 310 309 307 307 306 304 300 295 299 298 302 301 301 299 297 296 291 289 289 290 291
313 316 316 316 316 316 317 318 317 313 315 316 315 317 317 314 312 309 309 308 306 305 304 299 295 295 294 294 298 300 298 298 296 294 292 290 290 291
310 315 317 317 317 318 318 318 318 316 315 317 316 316 315 314 311 311 310 309 308 306 305 301 296 298 297 299 296 293 296 294 292 291 291 290 290 293
310 313 316 317 317 318 318 318 318 314 317 316 315 315 314 314 312 313 314 313 312 309 304 301 299 297 300 304 300 290 289 292 291 290 288 288 288 289
310 311 315 317 317 318 318 318 317 317 317 317 316 315 315 316 315 315 315 298 302 308 306 306 307 295 297 293 293 290 286 290 293 291 291 289 288 288
312 312 313 315 316 317 317 317 316 312 313 316 316 317 316 316 315 314 313 311 308 311 311 307 296 294 292 297 300 292 285 285 290 294 294 294 291 289
315 315 314 315 314 315 314 315 315 316 314 314 314 314 314 313 315 315 313 312 312 308 307 298 293 292 293 294 292 283 284 285 289 289 289 292 293 293

GFSNE_sfc_thetae_048.txt.gz
Theta_e
323 323 323 323 323 323 321 321 320 314 316 322 325 328 330 331 335 334 332 326 326 323 323 323 323 324 325 325 326 326 327 327 327 327 327 328 327 328
324 324 322 323 323 323 323 321 320 321 315 324 323 324 326 326 334 331 330 325 323 321 321 321 320 320 321 321 322 323 324 324 324 326 327 327 327 325
324 323 322 324 325 323 321 321 322 323 318 320 322 321 320 321 323 326 327 325 322 321 321 318 316 317 318 317 319 322 322 322 322 323 323 323 323 323
321 321 322 324 323 323 322 321 322 325 321 316 319 317 317 319 321 321 322 322 322 319 317 315 315 315 315 316 317 316 316 316 317 318 319 320 320 320
322 321 323 322 321 321 321 321 323 324 322 318 316 318 317 317 316 317 316 317 320 320 317 316 316 316 315 312 312 311 310 309 309 311 314 316 316 316
324 323 323 322 322 320 321 322 323 322 321 318 315 315 315 316 315 313 313 316 316 318 317 315 315 314 312 311 312 311 307 306 306 307 308 307 307 309
324 324 323 322 321 320 322 322 323 320 318 316 315 314 313 313 311 313 311 313 313 314 312 312 312 312 313 313 314 311 307 306 305 305 304 303 302 303
323 322 322 318 316 314 315 315 320 322 319 317 315 313 314 315 315 313 312 311 306 313 309 305 310 306 308 310 307 306 304 304 304 303 302 301 300 300
323 322 323 321 320 323 311 311 310 311 316 320 316 316 315 316 315 314 315 314 311 310 311 303 304 303 305 305 303 303 302 302 301 301 301 300 299 298
324 323 321 319 319 321 320 319 321 322 321 323 322 320 320 320 320 318 313 310 310 310 312 307 305 305 302 303 300 300 299 299 299 299 299 298 297 296
323 322 320 318 304 304 320 319 317 314 306 306 306 304 303 305 311 316 312 312 309 311 310 309 304 303 302 302 302 299 298 297 297 298 298 298 296 296
319 317 306 312 300 304 318 318 314 314 314 314 311 307 310 308 308 318 316 311 310 308 314 308 303 303 304 301 300 300 300 297 296 297 297 297 296 298
318 316 311 299 300 300 308 319 314 316 311 316 316 316 317 317 316 317 317 314 313 312 312 308 303 302 306 303 300 299 299 298 299 298 296 296 296 297
318 317 307 297 298 300 307 300 302 310 317 316 315 315 315 315 315 316 318 317 317 317 311 313 306 307 307 304 305 300 298 299 298 297 297 296 296 295
319 308 296 296 297 300 300 301 306 318 317 315 315 315 317 318 317 315 316 317 318 316 312 314 311 309 310 310 310 305 303 301 299 298 297 295 295 297
304 306 305 305 305 306 310 314 319 320 319 318 318 316 315 317 317 318 316 316 316 317 314 314 314 312 311 311 311 310 306 309 301 299 298 296 296 296
311 315 316 315 314 316 318 318 319 319 319 318 317 316 316 317 317 317 317 315 316 316 314 309 307 311 312 313 311 312 312 308 308 303 297 298 298 296
316 316 315 315 315 317 318 317 318 315 319 319 318 318 316 317 316 316 316 317 317 316 316 311 307 308 307 307 308 313 312 312 311 306 301 301 303 302
317 317 317 317 317 318 319 319 318 319 320 320 319 319 318 318 312 316 317 316 315 316 315 313 308 310 311 310 311 297 309 308 306 304 304 302 303 304
317 318 318 318 318 319 319 320 320 319 320 319 319 318 318 318 316 317 318 317 316 316 315 314 311 310 311 314 314 311 290 305 304 304 301 299 296 290
315 317 320 319 320 321 321 321 318 318 319 320 320 319 320 320 319 319 319 302 306 318 317 318 317 299 314 308 307 309 299 290 298 303 300 298 297 296
317 317 319 320 321 321 320 319 318 315 318 321 321 321 321 321 320 320 320 319 314 317 318 321 312 309 307 308 311 313 303 295 293 294 295 297 296 296
317 318 318 320 321 321 319 318 318 319 320 321 321 321 321 320 321 321 321 320 320 319 318 317 309 304 308 306 305 311 302 297 296 293 293 293 293 294